FW6629 Weather Reports


Display with metric or nautical units.
time (UTC)temp
F
wind
direction
speed
MPH
gust
MPH
rain 1hr
in
rain 24hr
in
rain mn
in
humidity
%
barometer
mb
20260507223520 70 293 4.0 9.0 0.00 1.24 0.41 50 1013.3
20260507223043 71 335 2.0 10.0 0.00 1.24 0.41 51 1013.3
20260507222520 71 275 3.0 10.0 0.00 1.24 0.41 51 1013.2
20260507222022 71 310 4.0 10.0 0.00 1.24 0.41 51 1013.4
20260507221541 71 302 3.0 9.0 0.00 1.24 0.41 51 1013.1
20260507221021 71 339 3.0 10.0 0.00 1.24 0.41 53 1013.1
20260507220520 71 298 4.0 10.0 0.00 1.24 0.41 53 1013.2
20260507220040 71 316 4.0 10.0 0.00 1.24 0.41 53 1013.4
20260507215522 71 335 3.0 12.0 0.00 1.24 0.41 53 1013.4
20260507215027 71 310 2.0 12.0 0.00 1.24 0.41 54 1013.3
20260507214537 71 10 4.0 9.0 0.00 1.24 0.41 52 1013.2
20260507214024 71 292 3.0 9.0 0.00 1.24 0.41 53 1013.2
20260507213521 71 335 3.0 10.0 0.00 1.24 0.41 55 1013.2
20260507213054 70 279 4.0 10.0 0.00 1.24 0.41 56 1013.2
20260507212523 70 359 3.0 9.0 0.00 1.24 0.41 56 1013.2
20260507212022 71 23 2.0 9.0 0.00 1.24 0.41 56 1013.1
20260507211545 70 335 4.0 8.0 0.00 1.24 0.41 59 1013.1
20260507211020 69 17 2.0 10.0 0.00 1.24 0.41 59 1013.0
20260507210522 70 301 1.0 10.0 0.00 1.24 0.41 60 1013.1
20260507210043 71 331 4.0 9.0 0.00 1.24 0.41 57 1013.0
20260507205522 71 338 3.0 8.0 0.00 1.28 0.41 58 1013.0
20260507205024 71 296 2.0 8.0 0.00 1.28 0.41 60 1012.9
20260507204547 70 357 1.0 8.0 0.00 1.28 0.41 60 1012.9
20260507204022 69 18 2.0 8.0 0.00 1.28 0.41 62 1012.9
20260507203522 69 231 1.0 4.0 0.00 1.28 0.41 63 1012.8
20260507203037 69 5 1.0 4.0 0.00 1.28 0.41 63 1012.8
20260507202520 69 107 1.0 4.0 0.00 1.28 0.41 64 1012.8
20260507202022 69 45 1.0 6.0 0.00 1.28 0.41 63 1012.9
20260507201540 68 44 2.0 5.0 0.00 1.28 0.41 65 1012.9
20260507201024 68 87 1.0 5.0 0.00 1.28 0.41 66 1012.7
20260507200527 68 76 0.0 3.0 0.00 1.28 0.41 65 1012.7
20260507200051 68 51 0.0 2.0 0.00 1.28 0.41 65 1012.7
20260507195520 68 73 0.0 4.0 0.00 1.31 0.41 65 1012.6
20260507195028 67 71 1.0 4.0 0.00 1.31 0.41 65 1012.6
20260507194546 67 46 1.0 3.0 0.00 1.31 0.41 65 1012.6
20260507194023 67 48 0.0 3.0 0.00 1.31 0.41 66 1012.7
20260507193525 67 91 0.0 3.0 0.00 1.31 0.41 64 1012.7
20260507193042 67 69 0.0 3.0 0.00 1.31 0.41 65 1012.8
20260507192523 67 76 1.0 3.0 0.00 1.31 0.41 65 1012.9
20260507192024 67 36 1.0 4.0 0.00 1.31 0.41 65 1013.1
20260507191547 67 18 1.0 4.0 0.00 1.31 0.41 65 1013.2
20260507191022 67 62 0.0 4.0 0.00 1.31 0.41 66 1013.1
20260507190524 67 102 1.0 4.0 0.00 1.31 0.41 63 1013.2
20260507190041 68 342 2.0 4.0 0.00 1.31 0.41 62 1013.3
20260507185523 68 83 1.0 7.0 0.00 1.74 0.41 63 1013.4
20260507185020 69 275 2.0 7.0 0.00 1.74 0.41 63 1013.5
20260507184539 68 313 2.0 7.0 0.00 1.74 0.41 62 1013.4
20260507184024 67 279 0.0 6.0 0.00 1.74 0.41 64 1013.5
20260507183523 67 306 0.0 6.0 0.00 1.74 0.41 65 1013.5
20260507183048 67 1 1.0 7.0 0.00 1.74 0.41 63 1013.6
20260507182524 67 245 1.0 7.0 0.00 1.74 0.41 63 1013.6
20260507182021 66 30 3.0 7.0 0.00 1.74 0.41 64 1013.7
20260507181546 67 262 2.0 8.0 0.00 1.74 0.41 62 1013.6
20260507181020 68 2 3.0 8.0 0.00 1.74 0.41 60 1013.6
20260507180521 68 360 2.0 9.0 0.00 1.74 0.41 63 1013.7
20260507180044 67 72 1.0 9.0 0.00 1.74 0.41 65 1013.5
20260507175520 67 283 5.0 9.0 0.00 1.74 0.41 60 1013.7
20260507175022 67 72 1.0 6.0 0.00 1.74 0.41 63 1013.7
20260507174544 67 329 1.0 6.0 0.00 1.74 0.41 62 1013.7
20260507174024 66 51 2.0 7.0 0.00 1.74 0.41 64 1013.8
20260507173521 65 11 2.0 12.0 0.00 1.74 0.41 64 1014.0
20260507173037 65 6 4.0 12.0 0.00 1.74 0.41 63 1014.0
20260507172521 65 29 5.0 12.0 0.00 1.74 0.41 65 1014.2
20260507172020 65 359 3.0 8.0 0.00 1.74 0.41 65 1014.2
20260507171550 65 13 3.0 11.0 0.00 1.74 0.41 66 1014.1
20260507171023 65 15 6.0 11.0 0.00 1.74 0.41 67 1014.2
20260507170523 65 343 2.0 9.0 0.00 1.74 0.41 69 1014.1
20260507170047 64 47 2.0 9.0 0.00 1.74 0.41 70 1014.2
20260507165520 63 24 6.0 12.0 0.00 1.74 0.41 68 1014.2
20260507165023 64 41 4.0 14.0 0.00 1.74 0.41 73 1014.2
20260507164557 63 34 5.0 14.0 0.00 1.74 0.41 70 1014.1
20260507164022 63 346 6.0 14.0 0.00 1.74 0.41 73 1014.1
20260507163522 63 339 1.0 9.0 0.00 1.74 0.41 76 1014.0
20260507163042 62 358 3.0 8.0 0.00 1.74 0.41 75 1014.0
20260507162520 62 6 1.0 6.0 0.00 1.74 0.41 76 1013.9
20260507162024 61 41 2.0 6.0 0.00 1.74 0.41 76 1013.8
20260507161540 60 355 1.0 7.0 0.00 1.74 0.41 79 1013.9
20260507161019 60 6 2.0 7.0 0.00 1.74 0.41 79 1014.1
20260507160526 60 13 1.0 7.0 0.00 1.74 0.41 79 1014.2
20260507160037 59 354 2.0 7.0 0.00 1.74 0.41 79 1014.2
20260507155524 59 5 1.0 5.0 0.00 1.74 0.41 80 1014.3
20260507155023 58 27 1.0 11.0 0.00 1.74 0.41 81 1014.3
20260507154540 58 32 4.0 11.0 0.00 1.74 0.41 79 1014.3
20260507154024 58 341 3.0 13.0 0.00 1.74 0.41 79 1014.4
20260507153521 58 13 4.0 13.0 0.00 1.74 0.41 79 1014.2
20260507153038 58 28 5.0 12.0 0.00 1.74 0.41 79 1014.3
20260507152523 58 7 6.0 13.0 0.00 1.74 0.41 80 1014.2
20260507152024 58 2 4.0 13.0 0.00 1.74 0.41 80 1014.1
20260507151543 58 351 5.0 13.0 0.00 1.74 0.41 81 1013.8
20260507151023 58 353 5.0 12.0 0.00 1.74 0.41 82 1013.7
20260507150523 58 5 4.0 11.0 0.00 1.74 0.41 83 1013.6
20260507150041 58 338 5.0 13.0 0.00 1.74 0.41 83 1013.6
20260507145523 58 6 3.0 13.0 0.00 2.27 0.41 84 1013.7
20260507145023 58 356 7.0 13.0 0.00 2.27 0.41 85 1013.7
20260507144540 58 8 4.0 11.0 0.00 2.27 0.41 86 1013.6
20260507144024 58 15 5.0 11.0 0.00 2.27 0.41 86 1013.6
20260507143524 58 358 2.0 8.0 0.00 2.27 0.41 87 1013.7
20260507143056 58 354 4.0 8.0 0.00 2.27 0.41 88 1013.7
20260507142524 58 10 2.0 8.0 0.00 2.27 0.41 88 1013.7
20260507142023 57 358 1.0 7.0 0.00 2.27 0.41 88 1013.6
20260507141604 57 19 2.0 9.0 0.00 2.27 0.41 89 1013.5
20260507141024 57 352 1.0 9.0 0.00 2.27 0.41 90 1013.6
20260507140524 57 348 1.0 7.0 0.00 2.27 0.41 90 1013.4
20260507140046 57 43 1.0 6.0 0.00 2.27 0.41 91 1013.6
20260507135523 57 42 1.0 9.0 0.00 2.31 0.41 91 1013.5
20260507135023 57 355 2.0 9.0 0.00 2.31 0.41 91 1013.5
20260507134544 57 324 2.0 5.0 0.00 2.31 0.41 91 1013.5
20260507134024 57 8 1.0 4.0 0.00 2.31 0.41 91 1013.4
20260507133525 57 341 0.0 4.0 0.00 2.31 0.41 91 1013.5
20260507133042 57 17 1.0 6.0 0.00 2.31 0.41 91 1013.4
20260507132521 57 338 2.0 8.0 0.00 2.31 0.41 91 1013.3
20260507132021 57 3 3.0 8.0 0.00 2.31 0.41 91 1013.5
20260507131546 57 9 3.0 7.0 0.00 2.31 0.41 91 1013.3
20260507131028 57 348 1.0 9.0 0.00 2.31 0.41 91 1012.9
20260507130524 57 352 3.0 9.0 0.00 2.31 0.41 91 1012.8
20260507130042 57 317 3.0 7.0 0.00 2.31 0.41 91 1013.0
20260507125524 57 33 1.0 6.0 0.00 2.31 0.41 91 1012.9
20260507125025 57 7 0.0 3.0 0.00 2.31 0.41 92 1012.8
20260507124537 57 344 1.0 3.0 0.01 2.31 0.41 92 1012.7
20260507124023 57 17 1.0 6.0 0.01 2.31 0.41 92 1012.3
20260507123523 57 40 2.0 6.0 0.01 2.31 0.41 92 1012.6
20260507123037 57 42 1.0 8.0 0.01 2.31 0.41 92 1012.6
20260507122524 57 53 3.0 8.0 0.01 2.31 0.41 92 1012.1
20260507122023 57 31 2.0 7.0 0.01 2.31 0.41 92 1012.2
20260507121545 57 355 2.0 7.0 0.01 2.31 0.41 92 1012.4
20260507121024 57 96 2.0 6.0 0.01 2.31 0.41 92 1012.4
20260507120526 57 76 1.0 5.0 0.01 2.31 0.41 92 1012.4
20260507120041 57 75 1.0 6.0 0.01 2.31 0.41 92 1012.3
20260507115524 57 24 2.0 6.0 0.01 2.31 0.41 92 1012.2
20260507115023 57 65 2.0 6.0 0.02 2.31 0.41 92 1012.0
20260507114541 58 86 1.0 5.0 0.02 2.30 0.40 92 1012.2
20260507114023 58 5 0.0 2.0 0.03 2.30 0.40 92 1012.4
20260507113528 58 12 0.0 2.0 0.03 2.30 0.40 92 1012.5
20260507113037 58 76 0.0 3.0 0.03 2.30 0.40 92 1012.4
20260507112524 58 79 0.0 6.0 0.03 2.30 0.40 92 1012.4
20260507112024 58 23 3.0 9.0 0.03 2.30 0.40 92 1012.0
20260507111547 58 5 1.0 9.0 0.04 2.30 0.40 92 1011.8
20260507111023 58 350 3.0 9.0 0.04 2.30 0.40 92 1011.8
20260507110523 58 7 2.0 6.0 0.05 2.30 0.40 92 1011.7
20260507110049 58 356 2.0 7.0 0.05 2.30 0.40 92 1011.6
20260507105523 58 16 3.0 7.0 0.06 2.30 0.40 92 1011.7
20260507105023 58 48 1.0 5.0 0.05 2.29 0.39 92 1011.0
20260507104544 59 90 0.0 3.0 0.04 2.28 0.38 92 1011.3
20260507104022 59 0 0.0 5.0 0.03 2.27 0.37 92 1011.8
20260507103524 59 5 2.0 5.0 0.04 2.27 0.37 92 1011.6
20260507103042 59 13 1.0 5.0 0.06 2.27 0.37 92 1011.2
20260507102523 59 50 1.0 5.0 0.08 2.27 0.37 92 1010.8
20260507102024 59 6 1.0 3.0 0.10 2.27 0.37 92 1011.0
20260507101541 59 85 0.0 2.0 0.12 2.26 0.36 92 1010.9
20260507101023 59 0 1.0 2.0 0.14 2.26 0.36 92 1011.1
20260507100523 59 19 0.0 2.0 0.17 2.25 0.35 92 1011.4
20260507100046 59 0 0.0 3.0 0.16 2.24 0.34 92 1011.4
20260507095526 59 358 1.0 3.0 0.16 2.24 0.34 92 1011.3
20260507095021 60 33 1.0 3.0 0.16 2.24 0.34 92 1011.3
20260507094548 60 74 0.0 2.0 0.17 2.24 0.34 92 1011.4
20260507094023 60 15 0.0 4.0 0.17 2.24 0.34 92 1011.7
20260507093523 60 0 0.0 4.0 0.18 2.23 0.33 92 1011.5
20260507093046 60 40 0.0 2.0 0.20 2.20 0.30 92 1011.8
20260507092523 60 0 0.0 4.0 0.19 2.18 0.28 92 1011.9
20260507092027 60 13 1.0 4.0 0.17 2.16 0.26 92 1011.9
20260507091543 60 1 2.0 4.0 0.15 2.14 0.24 92 1012.1
20260507091023 60 354 2.0 4.0 0.12 2.10 0.21 92 1011.9
20260507090526 60 354 1.0 3.0 0.09 2.08 0.18 92 1012.0
20260507090050 61 338 1.0 4.0 0.09 2.08 0.18 92 1011.3
20260507085523 61 53 1.0 4.0 0.09 2.08 0.18 92 1010.7
20260507085023 61 355 1.0 6.0 0.09 2.08 0.18 92 1010.6
20260507084549 61 6 2.0 6.0 0.08 2.07 0.17 92 1010.8
20260507084025 61 67 1.0 11.0 0.08 2.07 0.17 92 1010.8
20260507083524 62 5 4.0 16.0 0.05 2.04 0.14 92 1011.1
20260507083041 62 332 8.0 16.0 0.01 2.00 0.10 92 1012.8
20260507082521 63 23 3.0 7.0 0.00 1.99 0.09 92 1011.5
20260507082024 63 341 2.0 3.0 0.00 1.99 0.09 92 1011.0
20260507081541 62 355 1.0 2.0 0.00 1.99 0.09 92 1011.0
20260507081024 62 0 0.0 2.0 0.00 1.99 0.09 92 1011.0
20260507080526 62 0 0.0 2.0 0.00 1.99 0.09 92 1011.0
20260507080038 62 0 0.0 2.0 0.00 1.99 0.09 92 1011.1
20260507075523 62 0 0.0 2.0 0.00 1.99 0.09 92 1011.0
20260507075024 62 0 0.0 2.0 0.00 1.99 0.09 92 1011.4
20260507074544 62 140 0.0 2.0 0.00 1.99 0.09 92 1011.3
20260507074023 62 355 0.0 0.0 0.00 1.99 0.09 92 1011.1
20260507073524 62 0 0.0 1.0 0.00 1.99 0.09 92 1011.1
20260507073043 62 0 0.0 2.0 0.00 1.99 0.09 92 1011.0
20260507072526 62 355 1.0 2.0 0.00 1.99 0.09 92 1010.9
20260507072023 62 0 0.0 2.0 0.00 1.99 0.09 92 1010.9
20260507071541 62 83 1.0 2.0 0.00 1.99 0.09 92 1010.7
20260507071029 62 94 1.0 2.0 0.00 1.99 0.09 92 1010.3
20260507070524 62 115 0.0 2.0 0.00 1.99 0.09 92 1010.8
20260507070044 63 28 0.0 2.0 0.00 1.99 0.09 92 1011.0
20260507065523 62 356 0.0 2.0 0.00 1.99 0.09 92 1011.2
20260507065023 62 356 0.0 2.0 0.00 1.99 0.09 92 1011.5
20260507064604 62 0 0.0 1.0 0.00 1.99 0.09 92 1011.5
20260507064022 62 0 0.0 1.0 0.00 1.99 0.09 92 1011.4
20260507063522 63 0 0.0 2.0 0.00 1.99 0.09 92 1011.4
20260507063052 63 0 0.0 2.0 0.00 1.99 0.09 92 1011.4
20260507062525 63 350 1.0 2.0 0.00 1.99 0.09 92 1011.5
20260507062023 63 0 0.0 2.0 0.00 1.99 0.09 92 1011.5
20260507061547 63 0 0.0 2.0 0.00 1.99 0.09 92 1011.4
20260507061024 63 0 0.0 2.0 0.00 1.99 0.09 92 1011.8
20260507060524 63 355 0.0 1.0 0.00 1.99 0.09 92 1011.8
20260507060051 63 351 1.0 2.0 0.00 1.99 0.09 92 1011.8
20260507055523 63 0 0.0 2.0 0.00 1.99 0.09 92 1012.0
20260507055025 63 298 1.0 3.0 0.00 1.99 0.09 92 1012.2
20260507054548 63 197 1.0 3.0 0.00 1.99 0.09 92 1012.1
20260507054024 63 181 1.0 2.0 0.00 1.99 0.09 92 1011.8
20260507053524 63 283 1.0 5.0 0.00 1.99 0.09 92 1011.5
20260507053042 63 214 1.0 6.0 0.03 1.99 0.09 92 1011.1
20260507052524 63 205 3.0 6.0 0.06 1.99 0.09 92 1011.2
20260507052024 63 150 2.0 4.0 0.07 1.99 0.09 92 1011.4
20260507051558 63 154 1.0 3.0 0.08 1.99 0.09 92 1011.4
20260507051024 63 160 1.0 3.0 0.09 1.99 0.09 92 1011.2
20260507050525 63 160 1.0 3.0 0.09 1.99 0.09 92 1011.3
20260507050046 63 178 0.0 4.0 0.09 1.99 0.09 92 1011.1
20260507045525 64 108 2.0 4.0 0.09 1.99 0.09 92 1011.3
20260507045027 64 133 2.0 4.0 0.09 1.99 0.09 92 1011.5
20260507044541 64 112 1.0 3.0 0.10 1.99 0.09 92 1011.7
20260507044021 64 117 0.0 3.0 0.10 1.99 0.09 92 1012.1
20260507043523 64 111 1.0 3.0 0.09 1.98 0.08 92 1012.1
20260507043043 64 158 1.0 2.0 0.07 1.95 0.05 92 1012.5
20260507042523 64 179 0.0 2.0 0.05 1.93 0.03 92 1012.7
20260507042024 64 322 0.0 2.0 0.03 1.91 0.01 92 1012.3
20260507041541 64 179 0.0 2.0 0.03 1.91 0.01 92 1012.3
20260507041027 64 275 0.0 3.0 0.02 1.90 0.00 92 1012.5
20260507040523 64 0 0.0 3.0 0.03 1.90 0.00 92 1012.1
20260507040049 64 126 2.0 5.0 0.03 1.90 0.00 92 1011.7
20260507035523 64 93 2.0 5.0 0.04 1.90 1.90 92 1011.8
20260507035024 64 120 1.0 2.0 0.07 1.90 1.90 92 1012.0
20260507034548 64 323 0.0 2.0 0.08 1.89 1.89 92 1012.6
20260507034024 64 342 0.0 2.0 0.08 1.89 1.89 92 1012.7
20260507033526 64 306 0.0 3.0 0.07 1.88 1.88 92 1012.7
20260507033037 64 98 1.0 3.0 0.07 1.88 1.88 92 1012.4
20260507032524 64 131 1.0 3.0 0.07 1.88 1.88 92 1012.6
20260507032024 64 140 2.0 3.0 0.07 1.88 1.88 92 1012.2
20260507031545 64 107 1.0 5.0 0.07 1.88 1.88 92 1012.2
20260507031023 64 112 1.0 5.0 0.06 1.87 1.87 92 1012.2
20260507030523 64 135 3.0 5.0 0.06 1.87 1.87 92 1012.3
20260507030040 64 125 2.0 4.0 0.06 1.87 1.87 92 1012.6
20260507025525 64 123 2.0 3.0 0.04 1.85 1.85 92 1012.6
20260507025024 64 308 1.0 2.0 0.02 1.83 1.83 92 1013.1
20260507024538 64 303 0.0 2.0 0.00 1.81 1.81 92 1013.2
20260507024024 64 341 1.0 2.0 0.00 1.81 1.81 92 1012.8
20260507023524 64 0 0.0 2.0 0.00 1.81 1.81 91 1012.6
20260507023042 64 0 0.0 1.0 0.00 1.81 1.81 91 1012.2
20260507022523 64 180 0.0 1.0 0.00 1.81 1.81 91 1012.2
20260507022024 64 131 1.0 1.0 0.00 1.81 1.81 91 1012.3
20260507021541 64 133 0.0 2.0 0.00 1.81 1.81 91 1012.3
20260507021023 64 0 0.0 3.0 0.00 1.81 1.81 91 1012.3
20260507020523 64 0 1.0 3.0 0.00 1.81 1.81 91 1012.5
20260507020100 64 131 1.0 3.0 0.00 1.81 1.81 91 1012.5
20260507015523 64 102 1.0 2.0 0.00 1.81 1.81 91 1012.4
20260507015027 64 349 0.0 2.0 0.00 1.81 1.81 91 1012.3
20260507014546 64 0 0.0 2.0 0.00 1.81 1.81 91 1012.5
20260507014023 64 0 0.0 2.0 0.00 1.81 1.81 91 1012.7
20260507013522 64 0 0.0 2.0 0.00 1.81 1.81 91 1012.8
20260507013037 64 0 0.0 2.0 0.00 1.81 1.81 91 1012.9
20260507012524 64 0 0.0 2.0 0.01 1.81 1.81 91 1012.8
20260507012024 64 344 1.0 2.0 0.01 1.81 1.81 91 1012.9
20260507011540 64 0 1.0 2.0 0.01 1.81 1.81 91 1012.8
20260507011023 64 317 1.0 2.0 0.01 1.81 1.81 91 1012.6
20260507010522 64 2 1.0 2.0 0.02 1.81 1.81 91 1012.4
20260507010056 64 0 0.0 2.0 0.03 1.81 1.81 91 1012.3
20260507005523 64 129 1.0 2.0 0.03 1.81 1.81 91 1012.2
20260507005024 64 106 0.0 2.0 0.03 1.81 1.81 91 1012.2
20260507004537 64 90 0.0 2.0 0.04 1.81 1.81 91 1012.2
20260507004023 64 0 0.0 2.0 0.05 1.81 1.81 91 1012.3
20260507003524 64 105 0.0 4.0 0.07 1.81 1.81 91 1012.4
20260507003041 64 102 1.0 4.0 0.11 1.81 1.81 91 1012.1
20260507002521 64 117 2.0 5.0 0.11 1.80 1.80 91 1012.2
20260507002023 64 139 2.0 5.0 0.13 1.80 1.80 91 1012.3
20260507001541 64 123 3.0 5.0 0.18 1.80 1.80 91 1012.2
20260507001022 64 124 0.0 3.0 0.24 1.80 1.80 91 1012.3
20260507000523 64 95 1.0 3.0 0.34 1.78 1.78 91 1012.5
20260507000041 64 169 0.0 2.0 0.35 1.78 1.78 91 1013.2
20260506235523 65 302 0.0 4.0 0.40 1.78 1.78 91 1013.4
20260506235023 65 319 1.0 4.0 0.56 1.78 1.78 91 1013.0
20260506234537 65 132 1.0 4.0 0.57 1.77 1.77 91 1012.6
20260506234023 65 0 1.0 2.0 0.56 1.76 1.76 91 1012.4
20260506233521 65 112 0.0 2.0 0.55 1.74 1.74 91 1012.4
20260506233037 65 0 0.0 3.0 0.52 1.70 1.70 90 1012.5
20260506232520 65 107 0.0 3.0 0.51 1.69 1.69 90 1012.8
20260506232027 65 159 1.0 3.0 0.51 1.67 1.67 91 1012.8
20260506231546 65 108 0.0 3.0 0.50 1.60 1.60 91 1012.9
20260506231024 65 0 0.0 4.0 0.47 1.55 1.55 91 1012.7
20260506230521 65 123 1.0 4.0 0.36 1.44 1.44 90 1012.8
20260506230103 65 139 2.0 3.0 0.35 1.42 1.42 90 1012.2
20260506225523 65 58 0.0 3.0 0.30 1.37 1.37 90 1012.3
20260506225023 66 157 1.0 3.0 0.14 1.21 1.21 90 1012.8
20260506224541 66 124 0.0 2.0 0.13 1.20 1.20 90 1011.9
20260506224026 66 0 0.0 2.0 0.13 1.20 1.20 90 1012.0